TimeCDT,TemperatureF,Dew PointF,Humidity,Sea Level PressureIn,VisibilityMPH,Wind Direction,Wind SpeedMPH,Gust SpeedMPH,PrecipitationIn,Events,Conditions,WindDirDegrees,DateUTC
12:15 AM,61.5,56.5,83,30.11,10.0,SE,4.6,-,N/A,,Clear,130,2013-08-19 05:15:00
12:35 AM,61.9,56.7,83,30.11,10.0,SE,4.6,-,N/A,,Clear,140,2013-08-19 05:35:00
12:55 AM,60.8,56.5,86,30.11,10.0,SSE,4.6,-,N/A,,Clear,160,2013-08-19 05:55:00
1:15 AM,59.9,56.3,88,30.11,10.0,South,4.6,-,N/A,,Clear,170,2013-08-19 06:15:00
1:35 AM,59.2,56.3,90,30.11,10.0,SSW,4.6,-,N/A,,Clear,200,2013-08-19 06:35:00
1:55 AM,59.0,55.9,90,30.11,10.0,SSW,3.5,-,N/A,,Clear,200,2013-08-19 06:55:00
2:15 AM,59.0,55.8,89,30.11,10.0,SSW,3.5,-,N/A,,Clear,200,2013-08-19 07:15:00
2:35 AM,59.0,56.3,91,30.10,10.0,South,4.6,-,N/A,,Clear,190,2013-08-19 07:35:00
2:55 AM,59.2,56.3,90,30.10,10.0,SSW,4.6,-,N/A,,Clear,200,2013-08-19 07:55:00
3:15 AM,58.6,55.8,90,30.10,10.0,SSW,3.5,-,N/A,,Clear,210,2013-08-19 08:15:00
3:35 AM,56.8,54.5,92,30.10,10.0,SW,3.5,-,N/A,,Clear,220,2013-08-19 08:35:00
3:55 AM,56.5,54.0,91,30.10,10.0,Calm,Calm,-,N/A,,Clear,0,2013-08-19 08:55:00
4:15 AM,55.8,53.4,92,30.10,10.0,Calm,Calm,-,N/A,,Clear,0,2013-08-19 09:15:00
4:35 AM,55.6,53.1,91,30.10,10.0,Calm,Calm,-,N/A,,Clear,0,2013-08-19 09:35:00
4:55 AM,55.0,52.7,92,30.10,7.0,Calm,Calm,-,N/A,,Clear,0,2013-08-19 09:55:00
5:15 AM,54.7,52.3,92,30.10,7.0,Calm,Calm,-,N/A,,Clear,0,2013-08-19 10:15:00
5:35 AM,54.7,52.5,92,30.11,7.0,Calm,Calm,-,N/A,,Clear,0,2013-08-19 10:35:00
5:55 AM,55.4,53.2,92,30.12,7.0,Calm,Calm,-,N/A,,Clear,0,2013-08-19 10:55:00
6:15 AM,56.3,54.1,92,30.11,5.0,Calm,Calm,-,N/A,,Clear,0,2013-08-19 11:15:00
6:35 AM,56.3,54.0,92,30.11,5.0,SSE,4.6,-,N/A,,Clear,160,2013-08-19 11:35:00
6:55 AM,56.5,54.5,93,30.11,4.0,South,3.5,-,N/A,,Clear,170,2013-08-19 11:55:00
7:15 AM,58.1,55.9,93,30.11,4.0,SSE,4.6,-,N/A,,Clear,160,2013-08-19 12:15:00
7:35 AM,60.1,57.7,92,30.11,4.0,SSE,3.5,-,N/A,,Clear,150,2013-08-19 12:35:00
7:55 AM,62.1,59.2,90,30.11,5.0,Calm,Calm,-,N/A,,Clear,0,2013-08-19 12:55:00
8:15 AM,63.9,59.9,87,30.11,7.0,Calm,Calm,-,N/A,,Clear,0,2013-08-19 13:15:00
8:35 AM,65.5,60.6,84,30.12,7.0,South,3.5,-,N/A,,Clear,190,2013-08-19 13:35:00
8:55 AM,68.0,61.9,81,30.12,7.0,SSW,5.8,-,N/A,,Clear,210,2013-08-19 13:55:00
9:15 AM,69.4,62.1,77,30.12,10.0,SW,3.5,-,N/A,,Clear,220,2013-08-19 14:15:00
9:35 AM,71.6,62.8,74,30.12,10.0,SW,3.5,-,N/A,,Clear,220,2013-08-19 14:35:00
9:55 AM,73.4,63.1,70,30.12,10.0,SSW,5.8,-,N/A,,Clear,200,2013-08-19 14:55:00
10:15 AM,75.6,63.3,66,30.12,10.0,SSW,8.1,-,N/A,,Clear,210,2013-08-19 15:15:00
10:35 AM,75.2,63.5,67,30.12,10.0,SSW,6.9,-,N/A,,Clear,210,2013-08-19 15:35:00
10:55 AM,77.2,63.1,62,30.12,10.0,SSW,8.1,-,N/A,,Clear,210,2013-08-19 15:55:00
11:15 AM,77.7,62.2,59,30.11,10.0,SSW,8.1,-,N/A,,Clear,200,2013-08-19 16:15:00
11:35 AM,78.6,61.9,56,30.11,10.0,South,6.9,-,N/A,,Clear,190,2013-08-19 16:35:00
11:55 AM,77.9,60.4,55,30.10,10.0,South,6.9,-,N/A,,Scattered Clouds,190,2013-08-19 16:55:00
12:15 PM,77.2,60.6,56,30.10,10.0,SSW,6.9,-,N/A,,Scattered Clouds,210,2013-08-19 17:15:00
12:35 PM,77.9,61.5,57,30.10,10.0,South,8.1,-,N/A,,Clear,190,2013-08-19 17:35:00
12:55 PM,80.1,61.7,53,30.09,10.0,SSW,8.1,-,N/A,,Clear,210,2013-08-19 17:55:00
1:15 PM,79.5,61.5,54,30.09,10.0,SSW,9.2,-,N/A,,Clear,210,2013-08-19 18:15:00
1:35 PM,79.3,61.7,55,30.08,10.0,SW,6.9,-,N/A,,Scattered Clouds,230,2013-08-19 18:35:00
1:55 PM,78.8,61.0,54,30.07,10.0,SSW,5.8,-,N/A,,Clear,210,2013-08-19 18:55:00
2:15 PM,79.0,59.5,51,30.07,10.0,South,6.9,-,N/A,,Clear,190,2013-08-19 19:15:00
2:35 PM,79.2,59.2,50,30.06,10.0,South,9.2,-,N/A,,Clear,190,2013-08-19 19:35:00
2:55 PM,80.1,59.9,50,30.06,10.0,South,6.9,-,N/A,,Clear,180,2013-08-19 19:55:00
3:15 PM,79.0,59.9,52,30.05,10.0,SW,4.6,-,N/A,,Scattered Clouds,220,2013-08-19 20:15:00
3:35 PM,80.6,61.9,53,30.05,10.0,SW,3.5,-,N/A,,Clear,220,2013-08-19 20:35:00
3:55 PM,82.2,60.4,48,30.04,10.0,SSW,4.6,-,N/A,,Clear,200,2013-08-19 20:55:00
4:15 PM,81.0,61.2,51,30.03,10.0,South,4.6,-,N/A,,Scattered Clouds,190,2013-08-19 21:15:00
4:35 PM,82.8,59.2,45,30.03,10.0,SW,5.8,-,N/A,,Scattered Clouds,220,2013-08-19 21:35:00
4:55 PM,82.6,57.6,42,30.03,10.0,SSW,9.2,-,N/A,,Clear,210,2013-08-19 21:55:00
5:15 PM,82.4,59.2,45,30.03,10.0,South,5.8,-,N/A,,Clear,190,2013-08-19 22:15:00
5:35 PM,81.9,59.2,46,30.02,10.0,South,5.8,-,N/A,,Scattered Clouds,190,2013-08-19 22:35:00
5:55 PM,81.5,59.7,47,30.03,10.0,South,3.5,-,N/A,,Clear,180,2013-08-19 22:55:00
6:15 PM,80.6,61.2,51,30.02,10.0,South,4.6,-,N/A,,Clear,180,2013-08-19 23:15:00
6:35 PM,79.5,62.8,56,30.02,10.0,South,3.5,-,N/A,,Clear,180,2013-08-19 23:35:00
6:55 PM,78.3,63.3,60,30.02,10.0,South,3.5,-,N/A,,Clear,170,2013-08-19 23:55:00
7:15 PM,76.8,63.7,64,30.02,10.0,SSE,3.5,-,N/A,,Clear,160,2013-08-20 00:15:00
7:35 PM,74.7,63.3,68,30.02,10.0,SSE,3.5,-,N/A,,Clear,150,2013-08-20 00:35:00
7:55 PM,73.0,62.4,69,30.02,10.0,SE,5.8,-,N/A,,Scattered Clouds,140,2013-08-20 00:55:00
8:15 PM,72.0,62.6,72,30.02,10.0,SE,4.6,-,N/A,,Scattered Clouds,140,2013-08-20 01:15:00
8:35 PM,70.2,62.2,76,30.02,10.0,SE,4.6,-,N/A,,Clear,140,2013-08-20 01:35:00
8:55 PM,69.3,61.7,77,30.02,10.0,SSE,4.6,-,N/A,,Clear,150,2013-08-20 01:55:00
9:15 PM,68.5,61.5,78,30.03,10.0,SE,4.6,-,N/A,,Clear,140,2013-08-20 02:15:00
9:35 PM,67.6,61.7,81,30.04,10.0,SE,4.6,-,N/A,,Clear,140,2013-08-20 02:35:00
9:55 PM,67.3,61.7,82,30.03,10.0,SSE,4.6,-,N/A,,Clear,150,2013-08-20 02:55:00
10:15 PM,67.3,61.9,83,30.03,10.0,SSE,4.6,-,N/A,,Clear,160,2013-08-20 03:15:00
10:35 PM,66.0,61.2,84,30.03,10.0,South,4.6,-,N/A,,Clear,170,2013-08-20 03:35:00
10:55 PM,64.9,61.0,87,30.03,10.0,SSE,4.6,-,N/A,,Clear,160,2013-08-20 03:55:00
11:15 PM,64.8,60.8,87,30.03,10.0,South,5.8,-,N/A,,Clear,170,2013-08-20 04:15:00
11:35 PM,64.9,60.4,85,30.02,10.0,South,5.8,-,N/A,,Clear,180,2013-08-20 04:35:00
11:55 PM,64.0,59.9,86,30.02,10.0,South,3.5,-,N/A,,Clear,190,2013-08-20 04:55:00